Location: Kunchanapalle
(16.4623°N, 80.6176°E)
Time: 16:58:24
(UTC+00:00)

IRS-1A Rocket - Pass Details

Date: 13 August 2020
Orbit: 852 x 930 km, 99.2° (Epoch: 18 September)

Event Time Altitude Azimuth Distance (km) Brightness Sun altitude
Exits shadow 14:34:39 36° 150° (SSE) 1,355 4.8 -21.5°
Maximum altitude 14:37:00 71° 76° (ENE) 928 4.2 -22.0°
Drops below altitude 10° 14:42:39 10° 353° (N) 2,557 7.1 -23.3°
Sets 14:45:05 0° 351° (N) 3,510 7.9 -23.8°
